Location: �clusier
(49.9361°N, 2.7869°E)
Time: 05:32:36
(UTC+00:00)

NOAA 13 - Pass Details

Date: 02 February 2022
Orbit: 842 x 857 km, 98.5° (Epoch: 23 May)

Event Time Altitude Azimuth Distance (km) Brightness Sun altitude
Rises 06:28:46 0° 5° (N) 3,428 7.8 -8.7°
Reaches altitude 10° 06:31:44 10° 349° (N) 2,491 6.9 -8.2°
Maximum altitude 06:35:34 20° 305° (NW) 1,894 6.0 -7.6°
Drops below altitude 10° 06:39:24 10° 260° (W) 2,487 6.6 -7.0°
Sets 06:42:23 0° 244° (WSW) 3,422 7.4 -6.6°
